Location: Melita
(38.4566°N, 122.6369°W)
Time: 12:16:02
(UTC+00:00)

CZ-3 Stage 3 - Pass Details

Date: 24 January 2020
Orbit: 411 x 34779 km, 30.9° (Epoch: 27 February)

Event Time Altitude Azimuth Distance (km) Brightness Sun altitude
Exits shadow 13:12:08 32° 217° (SW) 1,706 4.0 -25.4°
Maximum altitude 13:12:20 32° 213° (SSW) 1,663 3.9 -25.3°
Drops below altitude 10° 13:15:50 10° 146° (SE) 1,928 5.1 -24.7°
Sets 13:17:22 0° 133° (SE) 2,537 6.0 -24.4°
